DW7816 Weather Reports


Display with metric or nautical units.
time (UTC)temp
F
wind
direction
speed
MPH
gust
MPH
rain 1hr
in
rain 24hr
in
rain mn
in
humidity
%
barometer
mb
20260906162129 94 126 2.0 7.0 0.00 0.00 0.00 57 1013.7
20260906161113 94 103 1.0 7.0 0.00 0.00 0.00 55 1013.6
20260906154914 93 112 0.0 3.0 0.00 0.00 0.00 57 1013.6
20260906153927 93 198 0.0 3.0 0.00 0.00 0.00 60 1013.6
20260906152933 92 125 0.0 3.0 0.00 0.00 0.00 58 1013.6
20260906151928 92 149 0.0 0.0 0.00 0.00 0.00 57 1013.6
20260906150932 91 149 0.0 0.0 0.00 0.00 0.00 63 1013.6
20260906145931 90 149 0.0 0.0 0.00 0.00 0.00 61 1013.6
20260906144933 89 149 0.0 0.0 0.00 0.00 0.00 62 1013.5
20260906143916 88 149 0.0 0.0 0.00 0.00 0.00 64 1013.5
20260906142911 87 149 0.0 0.0 0.00 0.00 0.00 65 1013.6
20260906141846 87 149 0.0 0.0 0.00 0.00 0.00 72 1013.7
20260906140822 87 149 0.0 0.0 0.00 0.00 0.00 69 1013.7
20260906135757 85 149 0.0 0.0 0.00 0.00 0.00 72 1013.5
20260906134734 83 149 0.0 0.0 0.00 0.00 0.00 77 1013.5
20260906133708 82 149 0.0 0.0 0.00 0.00 0.00 83 1013.6
20260906132655 79 149 0.0 0.0 0.00 0.00 0.00 86 1013.6
20260906131712 77 149 0.0 0.0 0.00 0.00 0.00 91 1013.5
20260906130659 74 149 0.0 0.0 0.00 0.00 0.00 94 1013.5
20260906125642 72 149 0.0 0.0 0.00 0.00 0.00 98 1013.3
20260906123517 69 149 0.0 0.0 0.00 0.00 0.00 98 1013.0
20260906121437 68 149 0.0 0.0 0.00 0.00 0.00 97 1012.8
20260906120437 68 149 0.0 0.0 0.00 0.00 0.00 97 1012.8
20260906114328 69 149 0.0 0.0 0.00 0.00 0.00 96 1012.5
20260906113317 69 149 0.0 0.0 0.00 0.00 0.00 96 1012.4
20260906112341 69 149 0.0 0.0 0.00 0.00 0.00 96 1012.4
20260906111334 69 149 0.0 0.0 0.00 0.00 0.00 96 1012.3
20260906110342 69 149 0.0 0.0 0.00 0.00 0.00 96 1012.3
20260906104202 69 149 0.0 0.0 0.00 0.00 0.00 95 1012.2
20260906103213 69 149 0.0 0.0 0.00 0.00 0.00 95 1012.2
20260906102139 69 149 0.0 0.0 0.00 0.00 0.00 95 1012.2
20260906101202 70 149 0.0 0.0 0.00 0.00 0.00 94 1012.2
20260906095036 70 149 0.0 0.0 0.00 0.00 0.00 94 1012.2
20260906094019 70 149 0.0 0.0 0.00 0.00 0.00 94 1012.1
20260906093033 70 149 0.0 0.0 0.00 0.00 0.00 93 1012.0
20260906092017 70 149 0.0 0.0 0.00 0.00 0.00 92 1012.0
20260906091014 71 149 0.0 0.0 0.00 0.00 0.00 92 1012.0
20260906090039 71 149 0.0 0.0 0.00 0.00 0.00 92 1011.9
20260906085059 71 149 0.0 0.0 0.00 0.00 0.00 91 1011.9
20260906082943 72 149 0.0 0.0 0.00 0.00 0.00 90 1011.8
20260906081957 72 149 0.0 0.0 0.00 0.00 0.00 90 1011.8
20260906075910 73 149 0.0 0.0 0.00 0.00 0.00 88 1011.8
20260906074913 73 149 0.0 0.0 0.00 0.00 0.00 88 1011.7
20260906073912 73 149 0.0 0.0 0.00 0.00 0.00 87 1011.7
20260906070543 75 149 0.0 0.0 0.00 0.00 0.00 85 1012.0
20260906064422 75 126 0.0 0.0 0.00 0.00 0.00 85 1012.0
20260906062235 75 126 0.0 0.0 0.00 0.00 0.00 83 1012.2
20260906061213 75 126 0.0 1.0 0.00 0.00 0.00 82 1012.1
20260906055044 75 126 0.0 0.0 0.00 0.00 0.00 84 1012.0
20260906054020 75 126 0.0 0.0 0.00 0.00 0.00 86 1012.1
20260906052953 75 126 0.0 0.0 0.00 0.00 0.00 83 1012.0
20260906051938 76 126 0.0 0.0 0.00 0.00 0.00 84 1012.0
20260906050957 76 126 0.0 0.0 0.00 0.00 0.00 83 1011.9
20260906045925 76 126 0.0 0.0 0.00 0.00 0.00 82 1011.9
20260906044919 76 126 0.0 0.0 0.00 0.00 0.00 81 1011.7
20260906043900 76 140 0.0 0.0 0.00 0.00 0.00 82 1011.9
20260906042901 76 140 0.0 0.0 0.00 0.00 0.00 82 1012.0
20260906041915 76 140 0.0 0.0 0.00 0.00 0.00 82 1012.0
20260906040936 77 140 0.0 0.0 0.00 0.00 0.00 82 1012.0
20260906035947 77 140 0.0 0.0 0.00 0.00 0.00 82 1012.0
20260906034938 77 140 0.0 0.0 0.00 0.00 0.00 81 1012.0
20260906032736 78 140 0.0 0.0 0.00 0.00 0.00 80 1011.8
20260906031746 79 140 0.0 0.0 0.00 0.00 0.00 77 1011.8
20260906030755 79 140 0.0 0.0 0.00 0.00 0.00 75 1011.8
20260906025746 80 140 0.0 0.0 0.00 0.00 0.00 76 1011.7
20260906024754 81 140 0.0 0.0 0.00 0.00 0.00 74 1011.6
20260906023734 82 140 0.0 0.0 0.00 0.00 0.00 73 1011.6
20260906022759 82 140 0.0 0.0 0.00 0.00 0.00 71 1011.5
20260906021825 82 164 0.0 0.0 0.00 0.00 0.00 71 1011.5
20260906020838 82 169 0.0 3.0 0.00 0.00 0.00 69 1011.2
20260906015824 83 175 0.0 0.0 0.00 0.00 0.00 69 1011.0
20260906014756 83 175 0.0 0.0 0.00 0.00 0.00 68 1010.8
20260906012543 84 127 0.0 3.0 0.00 0.00 0.00 67 1010.7
20260906011546 85 49 0.0 0.0 0.00 0.00 0.00 66 1010.6
20260906005414 86 171 0.0 0.0 0.00 0.00 0.00 64 1010.4
20260906003252 88 46 0.0 0.0 0.00 0.00 0.00 66 1010.4
20260906002305 89 46 0.0 0.0 0.00 0.00 0.00 62 1010.4
20260906001301 90 28 0.0 3.0 0.00 0.00 0.00 59 1010.4
20260906000248 92 19 0.0 0.0 0.00 0.00 0.00 62 1010.3
20260905235218 94 19 0.0 0.0 0.00 0.00 0.00 58 1010.3
20260905234215 95 19 0.0 0.0 0.00 0.00 0.00 52 1010.2
20260905233239 97 19 0.0 0.0 0.00 0.00 0.00 54 1010.2
20260905232252 98 19 0.0 0.0 0.00 0.00 0.00 51 1010.2
20260905231314 99 19 0.0 0.0 0.00 0.00 0.00 49 1010.2
20260905225222 100 19 0.0 0.0 0.00 0.00 0.00 48 1010.2
20260905224243 100 19 0.0 0.0 0.00 0.00 0.00 46 1010.1
20260905223253 100 19 0.0 2.0 0.00 0.00 0.00 46 1010.1
20260905222237 100 34 0.0 2.0 0.00 0.00 0.00 45 1010.1
20260905221255 99 5 0.0 0.0 0.00 0.00 0.00 42 1010.2
20260905220249 100 28 0.0 1.0 0.00 0.00 0.00 46 1010.3
20260905215311 100 63 0.0 2.0 0.00 0.00 0.00 44 1010.3
20260905214333 100 333 0.0 3.0 0.00 0.00 0.00 45 1010.4
20260905213305 100 47 0.0 0.0 0.00 0.00 0.00 44 1010.4
20260905211142 99 84 0.0 0.0 0.00 0.00 0.00 47 1010.8
20260905210113 99 30 1.0 6.0 0.00 0.00 0.00 47 1010.9
20260905205108 99 114 1.0 6.0 0.00 0.00 0.00 46 1011.0
20260905204039 99 29 0.0 4.0 0.00 0.00 0.00 46 1011.2
20260905203011 99 113 1.0 4.0 0.00 0.00 0.00 45 1011.3
20260905201956 99 121 1.0 4.0 0.00 0.00 0.00 46 1011.5
20260905201015 99 248 1.0 3.0 0.00 0.00 0.00 46 1011.6
20260905200009 98 175 2.0 7.0 0.00 0.00 0.00 47 1011.8
20260905195012 98 104 1.0 7.0 0.00 0.00 0.00 47 1011.8
20260905194023 98 98 2.0 7.0 0.00 0.00 0.00 46 1012.0
20260905193000 98 348 1.0 7.0 0.00 0.00 0.00 47 1012.0
20260905192015 98 49 1.0 7.0 0.00 0.00 0.00 47 1012.2
20260905185849 98 101 2.0 7.0 0.00 0.00 0.00 55 1012.5
20260905184823 98 20 1.0 6.0 0.00 0.00 0.00 49 1012.7
20260905183752 97 291 1.0 5.0 0.00 0.00 0.00 49 1012.9
20260905182742 96 153 1.0 0.0 0.00 0.00 0.00 55 1012.9
20260905180604 97 163 1.0 8.0 0.00 0.00 0.00 50 1013.3
20260905175556 96 338 1.0 6.0 0.00 0.00 0.00 50 1013.3
20260905174616 96 32 1.0 6.0 0.00 0.00 0.00 53 1013.4
20260905172520 95 58 2.0 7.0 0.00 0.00 0.00 54 1013.7
20260905171504 95 110 1.0 4.0 0.00 0.00 0.00 54 1013.8
20260905170500 95 73 0.0 7.0 0.00 0.00 0.00 57 1014.0
20260905165517 94 71 1.0 7.0 0.00 0.00 0.00 57 1014.2
20260905164525 93 5 1.0 5.0 0.00 0.00 0.00 57 1014.1
20260905163500 93 42 2.0 7.0 0.00 0.00 0.00 57 1014.1